Location: McFarlands Corners
(41.4117°N, 81.3382°W)
Time: 00:43:45
(UTC+00:00)

Courier 1B Rocket - Visible Passes

Search period start: 07 February 2026 00:00
Search period end: 17 February 2026 00:00
Orbit: 920 x 1201 km, 28.2° (Epoch: 6 February)

Date Brightness Start Highest point End Pass type
(mag) Time Alt. Az. Time Alt. Az. Time Alt. Az.
7 Feb 7.1 09:37:12 17° S 09:37:12 17° S 09:40:07 10° SSE visible
8 Feb 7.3 10:26:13 11° SSW 10:26:15 11° SSW 10:28:08 10° SSW visible
9 Feb 7.5 09:28:55 11° S 09:28:55 11° S 09:29:20 10° S visible
15 Feb 6.8 01:22:12 10° SSW 01:24:34 16° S 01:24:34 16° S visible
16 Feb 6.9 00:22:44 10° S 00:25:15 12° SSE 00:27:16 11° SE visible
16 Feb 7.2 02:12:38 10° SW 02:13:38 14° SW 02:13:38 14° SW visible
